Weather History for Pittsburgh Allegheny Co., PA

Change the Weather History Date:

Tuesday, October 23, 2012

  Actual Average Record
Temperature  
Mean Temperature 68 °F -  
Max Temperature 78 °F 61 °F 78 °F (2001)
Min Temperature 60 °F 33 °F 26 °F (1997)
Cooling Degree Days 4    
Growing Degree Days 18 (Base 50)    
Moisture  
Dew Point 47 °F    
Average Humidity 50    
Maximum Humidity 67    
Minimum Humidity 30    
Precipitation  
Precipitation 0.00 in - - ()
Sea Level Pressure  
Sea Level Pressure 30.06 in    
Wind  
Wind Speed 8 mph (SSW)    
Max Wind Speed 16 mph    
Max Gust Speed 23 mph    
Visibility 10 miles    
Events Rain    
Averages and records for this station are not official NWS values.
T = Trace of Precipitation, MM = Missing Value Source: NWS Daily Summary

Daily Weather History Graph

Daily Weather History Graph

Search for Another Location

Airport:

Trip Planner

Search our weather history database for the weather conditions in past years. The results will help you decide how hot, cold, wet, or windy it might be!

Date:

Astronomy

Oct. 23, 2012 Rise Set
Actual Time 7:39 AM EDT 6:27 PM EDT
Civil Twilight 7:11 AM EDT 6:55 PM EDT
Nautical Twilight 6:40 AM EDT 7:27 PM EDT
Astronomical Twilight 6:08 AM EDT 7:58 PM EDT
Moon 3:11 PM EDT (10/23) 1:29 AM EDT (10/23)
Length of Visible Light 11h 43m
Length of Day
10h 47m
Waxing Gibbous, 66% of the Moon is Illuminated
Oct 23
Waxing Gibbous
Oct 29
Full
Nov 6
Last Quarter
Nov 13
New
Nov 20
First Quarter

Hourly Weather History & Observations

Time (EDT) Temp. Dew Point Humidity Pressure Visibility Wind Dir Wind Speed Gust Speed Precip Events Conditions
1:53 AM 62.6 °F 48.2 °F 59% 30.08 in 10.0 mi South 6.9 mph - N/A   Mostly Cloudy
2:53 AM 62.1 °F 48.0 °F 60% 30.07 in 10.0 mi South 8.1 mph - N/A   Mostly Cloudy
3:53 AM 62.1 °F 48.0 °F 60% 30.07 in 10.0 mi South 8.1 mph - N/A   Overcast
4:53 AM 61.0 °F 48.0 °F 62% 30.07 in 10.0 mi South 8.1 mph - N/A   Overcast
5:53 AM 61.0 °F 48.0 °F 62% 30.07 in 10.0 mi South 9.2 mph - N/A   Mostly Cloudy
6:53 AM 60.1 °F 48.0 °F 64% 30.08 in 10.0 mi South 8.1 mph - N/A   Mostly Cloudy
7:53 AM 60.1 °F 48.0 °F 64% 30.09 in 10.0 mi South 8.1 mph - N/A   Mostly Cloudy
8:53 AM 60.1 °F 48.9 °F 67% 30.09 in 10.0 mi South 8.1 mph - N/A   Scattered Clouds
9:53 AM 62.1 °F 48.9 °F 62% 30.09 in 10.0 mi South 5.8 mph - N/A   Scattered Clouds
10:53 AM 66.9 °F 50.0 °F 54% 30.08 in 10.0 mi South 11.5 mph - N/A   Clear
11:53 AM 71.1 °F 48.9 °F 45% 30.08 in 10.0 mi SSW 11.5 mph - N/A   Clear
12:53 PM 73.4 °F 48.2 °F 41% 30.06 in 10.0 mi SSW 9.2 mph - N/A   Clear
1:53 PM 75.0 °F 48.9 °F 40% 30.05 in 10.0 mi WSW 11.5 mph 20.7 mph 0.00 in Rain Light Rain
2:53 PM 75.0 °F 48.0 °F 38% 30.04 in 10.0 mi WSW 12.7 mph 20.7 mph N/A   Mostly Cloudy
3:53 PM 77.0 °F 43.0 °F 30% 30.02 in 10.0 mi WSW 12.7 mph - N/A   Clear
4:53 PM 75.9 °F 43.0 °F 31% 30.02 in 10.0 mi WSW 16.1 mph 23.0 mph N/A   Partly Cloudy
5:53 PM 73.0 °F 44.1 °F 35% 30.03 in 10.0 mi WSW 9.2 mph - N/A   Clear
6:53 PM 69.8 °F 44.6 °F 40% 30.04 in 10.0 mi SW 6.9 mph - N/A   Clear
7:53 PM 69.1 °F 45.0 °F 42% 30.06 in 10.0 mi SSW 6.9 mph - N/A   Clear
8:53 PM 66.9 °F 45.0 °F 45% 30.06 in 10.0 mi SSW 5.8 mph - N/A   Clear
9:53 PM 66.0 °F 46.0 °F 48% 30.07 in 10.0 mi South 5.8 mph - N/A   Clear
10:53 PM 64.9 °F 46.9 °F 52% 30.07 in 10.0 mi South 6.9 mph - N/A   Clear
11:53 PM 64.9 °F 48.0 °F 54% 30.07 in 10.0 mi SSW 6.9 mph - N/A   Clear